カタログに戻る

COSMOS 2434

GLONASS

運用中ナビゲーションMEO
NORAD 32393·PAYLOAD·🇷🇺 Russia

打ち上げ Dec 25, 2007 から Baikonur Cosmodrome

Loading…

次のパス (今後24時間)

TLE

最新Source: CelesTrak SupGP

元期: Sep 12, 2026, 23:59 UTC

1 32393C 07065A   26255.99979167  .00000000  00000+0  00000+0 0  2558
2 32393  64.3191 188.9561 0001714  41.2433 103.5928  2.13101096    16

AllMySatでCOSMOS 2434をリアルタイム追跡

Download on the App Store